遥感四十三号02组-D (YAOGAN-43 02D)

导读

YAOGAN-43 02D(遥感四十三号02组卫星)是中国于2024年9月3日发射的国产遥感卫星,任务在西昌卫星发射中心,由长征四号乙运载火箭完成实施,卫星顺利进入预定轨道,发射任务取得圆满成功。该卫星主要用于开展低轨星座系统新技术试验,本次任务是长征系列运载火箭的第533次飞行。

Basic Information
目录编号:
60948
目录名称:
YAOGAN-43 02D
国际标识:
2024-156D
轨道中心:
EARTH
卫星名称:
遥感四十三号02组-D (YAOGAN-43 02D)
卫星全名:
遥感四十三号02组-D (YAOGAN-43 02D)
卫星状态:
在轨 (已飞行732 天)
发射日期:
2024-09-03 UTC
国别 :
中国 (CN)
星等 :
--
Orbit Information
数据来源 国际轨道数据 AOE轨道数据
星历时间 2026-09-05T11:46:22+0800
9小时前
查看轨道信息
2026-09-04T11:00:00+0800
1天前
查看轨道信息
半长轴 6874.813km 6874.821km
偏心率 0.0003481 0.0004051
轨道倾角 34.992° 34.990°
近地点辐角 250.605° 250.445°
升交点赤经 54.975° 61.465°
平近点角 109.429° 200.821°
近地点 494.282km 493.899km
远地点 499.07km 499.469km
周期 94.548分钟 94.548分钟
每日圈数 15.230407 15.23038
Detailed Information
运营商:
中国空间技术研究院
运营商所在国:
中国
制造商(研发单位):
中国空间技术研究院
制造商所在国:
中国
使用方式:
暂无
Satellite Introduction
遥感四十三号卫星组分别由航天科技集团五院和八院等抓总研制,主要用于开展低轨星座系统新技术试验。
2D Orbit Map
3D Orbit Map
Orbit Altitude Analysis Chart
Orbit Inclination Analysis Chart
Orbit Comprehensive Analysis Chart
View Comprehensive Chart
Conjunction Data List
Event ID Objects TCA Miss Dist (km) Collision Risk Probability Collision Risk Index (CRI) Action
CDM_260906-085705-308306-094821
2026-09-06T
08:57:47+0000
0.730 km
远距离
5.013607E-5 中风险 0.69
CDM_260905-192805-171806-094822
2026-09-05T
19:28:56+0000
2.036 km
极远距离
2.215885E-6 低风险 0.42
CDM_260907-020806-094806-629621
OBJECT D (66296)
2026-09-07T
02:08:06+0000
1.587 km
极远距离
1.329965E-6 低风险 0.37